Regional & State Weather Roundups


396 
ASUS44 KBMX 180810
RWRAL 
             
ALABAMA REGIONAL WEATHER ROUNDUP
NATIONAL WEATHER SERVICE BIRMINGHAM AL
200 AM CST MON DEC 18 2017
NOTE: "FAIR" INDICATES FEW OR NO CLOUDS BELOW 12,000 FEET
WITH NO SIGNIFICANT WEATHER AND/OR OBSTRUCTIONS TO VISIBILITY.
THE REMARK "TC" DENOTES TEMPERATURE IN DEGREES CELSIUS.
ALZ001>011-014-016>018-020-180900-
NORTH ALABAMA
  
CITY           SKY/WX    TMP DP  RH WIND       PRES   REMARKS
MUSCLE SHOALS  CLOUDY    49  45  86 SE5       30.15S                  
HUNTSVILLE     CLOUDY    47  46  97 SE3       30.16R FOG              
DECATUR        CLOUDY    46  46 100 SE3       30.16S                  
HALEYVILLE     CLOUDY    46  46 100 CALM      30.17R FOG              
GADSDEN        FOG       44  44 100 CALM      30.18S VSB 3/4          
$$
 
ALZ012-013-022-023-030>036-040>044-180900-
WEST CENTRAL ALABAMA
  
CITY           SKY/WX    TMP DP  RH WIND       PRES   REMARKS
TUSCALOOSA     CLOUDY    49  49 100 CALM      30.17R FOG              
DEMOPOLIS        N/A    N/A N/A N/A CALM      30.17R FOG              
$$
 
ALZ015-024>026-033>036-041>044-180900-
CENTRAL ALABAMA
  
CITY           SKY/WX    TMP DP  RH WIND       PRES   REMARKS
BIRMINGHAM     CLOUDY    48  46  93 NE3       30.18S                  
MONTGOMERY     FOG       52  50  93 CALM      30.16R VSB 1/2          
SHELBY CO ARPT CLOUDY    47  47 100 CALM      30.17R FOG              
MAXWELL AFB    FOG       52  52 100 CALM      30.14S VSB 1            
GREENVILLE     FOG       59  57  93 CALM      30.14R VSB 1            
SELMA          CLOUDY    52  50  93 CALM      30.15S FOG              
PRATTVILLE     CLOUDY    51  51 100 CALM      30.14S FOG              
BESSEMER       CLOUDY    46  46 100 E5        30.16S FOG              
TALLADEGA      FOG       46  46 100 CALM      30.17F VSB 1/2          
PELL CITY      FOG       45  45 100 CALM      30.18S VSB 1            
MARION         CLOUDY    49  49 100 SW8       30.15S FOG              
SYLACAUGA      FOG       48  48 100 CALM      30.16S VSB 1/2          
$$
 
ALZ019-021-028-029-037-038-045>048-180900-
EAST CENTRAL ALABAMA
  
CITY           SKY/WX    TMP DP  RH WIND       PRES   REMARKS
ANNISTON       FOG       47  45  93 NE3       30.17S VSB 1            
ALEXANDER CITY FOG       48  48 100 CALM      30.15S VSB 1/2          
AUBURN         FOG       54  52  94 CALM      30.16S VSB 1/4          
$$
 
ALZ051>064-180900-
SOUTHWEST ALABAMA
  
CITY           SKY/WX    TMP DP  RH WIND       PRES   REMARKS
MOBILE         FOG       63  62  97 N3        30.15S VSB 1/4          
BROOKLEY FIELD FOG       65  65 100 CALM      30.15F VSB 1/2          
EVERGREEN      FOG       66  65  96 CALM      30.15R VSB 1/2          
$$
ALZ049-050-065>069-180900-
SOUTHEAST ALABAMA
  
CITY           SKY/WX    TMP DP  RH WIND       PRES   REMARKS
DOTHAN         CLOUDY    68  68 100 SW8       30.16F                  
OZARK          CLOUDY    67  66  96 S6        30.13S                  
TROY           FOG       66  66 100 CALM      30.14S VSB 3/4          
EUFAULA        FOG       65  65 100 CALM      30.13S VSB 1            
$$